Regional Weather Roundup
Issued by NWS

Home | Current Version | Previous Version | Text Only | Print | Product List | Glossary Off
Versions: 1 2 3 4 5 6 7 8 9 10 11 12 13 14 15 16 17 18 19 20 21 22 23 24 25 26 27 28 29 30 31 32 33 34 35 36 37 38 39 40 41 42 43 44 45 46 47 48 49 50

000
ASUS43 KLSX 211959
RWRMO

WEATHER SUMMARY FOR MISSOURI
NATIONAL WEATHER SERVICE SPRINGFIELD MO
300 PM CDT SUN SEP 21 2014

NOTE: "FAIR" INDICATES FEW OR NO CLOUDS BELOW 12,000 FEET WITH NO
       SIGNIFICANT WEATHER AND/OR OBSTRUCTIONS TO VISIBILITY.
       CURRENT SKY AND/OR WEATHER CONDITIONS ARE NOT AVAILABLE FOR
       CHILLICOTHE AND FARMINGTON.

MOZ001>031-035>038-043-044-053-054-212100-
...NORTHERN AND WESTERN MISSOURI...

CITY           SKY/WX    TMP DP  RH WIND       PRES   REMARKS
KANSAS CTY INT MOSUNNY   76  48  37 N12G23    30.15F
KANSAS C DTWN  SUNNY     77  47  34 N12G20    30.14F
LEE`S SUMMIT   SUNNY     75  46  35 NW18      30.15F
ST JOSEPH      SUNNY     76  48  37 N14G23    30.16F
KIRKSVILLE     MOSUNNY   72  49  44 NW15G21   30.12S

$$
MOZ066>068-077>081-088>096-101>105-212100-
...SOUTHWEST MISSOURI...

CITY           SKY/WX    TMP DP  RH WIND       PRES   REMARKS
SPRINGFIELD    SUNNY     77  46  33 N14       30.11F
JOPLIN         SUNNY     78  48  34 N9        30.14F

$$
MOZ032>034-039>042-045>050-055>058-069>072-212100-
...CENTRAL MISSOURI...

CITY           SKY/WX    TMP DP  RH WIND       PRES   REMARKS
COLUMBIA       SUNNY     75  49  39 N20       30.09F
JEFFERSON CITY SUNNY     77  45  32 NW13G25   30.08S
ROLLA          SUNNY     76  45  33 N16G25    30.07F
SEDALIA        SUNNY     77  47  34 NW12G23   30.12F
OSAGE BEACH    SUNNY     77  48  36 W10       30.10S

$$
MOZ051-052-059>065-212100-
...EAST CENTRAL MISSOURI...

CITY           SKY/WX    TMP DP  RH WIND       PRES   REMARKS
ST LOUIS INTL  MOSUNNY   78  49  35 NW17G26   30.03S
SPIRIT OF STL  MOSUNNY   76  48  37 NW15G26   30.02F
ST CHARLES     SUNNY     76  49  38 NW18G24   30.03S

$$
MOZ072>076-082>087-097>100-106>115-212100-
...SOUTH CENTRAL AND SOUTHEAST MISSOURI...

CITY           SKY/WX    TMP DP  RH WIND       PRES   REMARKS
CAPE GIRARDEAU SUNNY     81  49  32 N12G20    29.99F
FARMINGTON     SUNNY     77  45  31 N10       30.05F
POPLAR BLUFF   SUNNY     83  47  28 NW12      30.00S
WEST PLAINS    SUNNY     80  44  27 NW9       30.08F

$$


USA.gov is the U.S. government's official web portal to all federal, state and local government web resources and services.